Location: Joplin, MO
(37.0842°N, 94.5133°W)
Time: 21:55:09
(UTC+02:00)

Courier 1B Rocket - Pass Details

Date: 05 April 2023
Orbit: 920 x 1202 km, 28.2° (Epoch: 05 June)

Event Time Altitude Azimuth Distance (km) Brightness Sun altitude
Rises 04:05:33 0° 265° (W) 4,024 9.4 -16.7°
Reaches altitude 10° 04:08:46 10° 255° (WSW) 3,025 8.4 -17.3°
Maximum altitude 04:15:06 31° 197° (SSW) 1,822 6.3 -18.5°
Enters shadow 04:18:35 20° 154° (SSE) 2,212 6.4 -19.1°
Drops below altitude 10° 04:21:04 10° 138° (SE) 2,843 - -19.6°
Sets 04:24:00 0° 128° (SE) 3,748 - -20.1°
